Voltar ao catálogo

STARLINK-5858

AtivoComunicaçõesVLEO
NORAD 57264·PAYLOAD·🇺🇸 United States

Lançado Jul 7, 2023 de Vandenberg Space Force Base

Loading…

Próximas Passagens (próximas 24 horas)

TLE

AtualizadoSource: CelesTrak SupGP

Época: Sep 14, 2026, 21:00 UTC

1 57264C 23094AY  26257.87548611  .00042981  00000+0  15565-2 0  2578
2 57264  43.0021  31.3788 0001410 270.4032 119.3284 15.27562861    12

Acompanhe STARLINK-5858 em tempo real com AllMySat

Download on the App Store